[[{"header":{"parameterUnit":"m.s-1","parameterCategory":1,"la1":30.2991,"la2":30.254,"lo1":-89.0895,"lo2":-89.0444,"dx":0.0017,"dy":0.0017,"nx":28,"ny":28,"refTime":"2022-11-03T21:00:00:Z","depth":0,"parameterNumber":2,"parameterNumberName":"U-component_of_WINDS"},"data":[0,0,0,0,0,0,0,0,0,0,0,0,0,0,0,0,0,0,0,0,0,0,0,0,0,0,0,0,0,0,0,0,0,0,0,0,0,0,0,0,0,0,0,0,0,0,0,0,0,0,0,0,0,0,0,0,0,0,-5.4025,-5.4027,0,-5.4265,-5.4267,-5.427,-5.4349,-5.4348,-5.4347,-5.4346,-5.4593,-5.46,-5.4608,0,0,0,0,0,0,0,0,0,0,0,0,0,-5.3639,-5.3646,-5.4025,-5.4028,-5.4031,-5.4264,-5.4267,-5.4271,-5.435,-5.4348,-5.4347,-5.4346,-5.4591,-5.46,-5.4609,0,0,0,0,0,0,0,0,0,0,0,0,0,-5.3836,-5.3648,-5.4024,-5.4098,-5.4107,-5.4264,-5.4268,-5.4272,-5.435,-5.4348,-5.4347,-5.4345,-5.4588,-5.4599,-5.461,-5.471,0,0,-5.4644,-5.4649,0,0,0,0,0,0,0,0,-5.3824,-5.385,-5.4084,-5.4093,-5.4104,-5.4276,-5.4222,-5.4419,-5.435,-5.4258,-5.4346,-5.4345,-5.4489,-5.4508,-5.4557,-5.4722,-5.4733,-5.4645,-5.4652,-5.4657,-5.466,0,0,0,0,0,0,0,-5.3811,-5.384,-5.412,-5.4088,-5.41,-5.4121,-5.4147,-5.426,-5.4379,-5.4266,-5.4272,-5.4299,-5.4494,-5.4545,-5.4563,-5.4736,-5.4645,-5.4655,-5.4662,-5.4666,-5.5,-5.5002,0,0,0,0,0,0,-5.3784,-5.3828,-5.4112,-5.4127,-5.3957,-5.4129,-5.4158,-5.4222,-5.4378,-5.44,-5.43,-5.4302,-5.4527,-5.455,-5.4572,-5.4701,-5.4657,-5.4668,-5.4674,-5.4998,-5.5001,-5.5003,0,0,0,0,0,0,-5.3776,-5.3809,-5.4102,-5.3979,-5.4018,-5.4137,-5.4208,-5.4227,-5.4279,-5.4404,-5.4426,-5.4331,-5.4527,-5.4556,-5.4676,-5.4711,-5.4673,-5.4683,-5.4996,-5.4999,-5.5002,-5.4959,0,0,0,0,0,0,-5.3764,-5.3805,-5.3843,-5.398,-5.4025,-5.4201,-5.421,-5.4233,-5.4298,-5.4303,-5.4439,-5.446,-5.4528,-5.4659,-5.4687,-5.4726,-5.4692,-5.4993,-5.4997,-5.5001,-5.4958,-5.4961,-5.4963,0,0,0,0,0,-5.375,-5.3821,-5.3844,-5.3878,-5.4074,-5.4202,-5.4228,-5.4305,-5.4301,-5.4341,-5.4422,-5.4455,-5.4703,-5.467,-5.4703,-5.4745,-5.4991,-5.4996,-5.5001,-5.4957,-5.496,-5.4963,0,0,0,0,0,0,-5.3685,-5.384,-5.3868,-5.3985,-5.408,-5.4216,-5.4268,-5.4305,-5.4404,-5.4404,-5.4495,-5.4526,-5.4639,-5.4705,-5.4666,-5.4853,-5.4849,-5.4861,-5.4805,-5.4809,-5.4811,-5.4792,-5.4701,0,0,0,0,0,-5.3684,-5.3774,-5.3906,-5.3997,-5.4043,-5.4147,-5.4206,-5.4257,-5.436,-5.44,-5.449,-5.4589,-5.469,-5.4753,-5.4853,-5.497,-5.5001,-5.5016,-5.5018,-5.5019,-5.5027,-5.5096,-5.5104,-5.5019,-5.5019,-5.5018,0,0,-5.3683,-5.3779,-5.383,-5.3986,-5.4066,-5.4158,-5.418,-5.4277,-5.4347,-5.4415,-5.4533,-5.4604,-5.4721,-5.484,-5.4897,-5.4898,-5.5059,-5.5025,-5.5025,-5.5033,-5.5102,-5.511,-5.5117,-5.5022,-5.5021,-5.5021,0,0,-5.3728,-5.381,-5.3895,-5.3976,-5.4097,-5.4167,-5.4187,-5.4319,-5.4368,-5.4489,-5.4543,-5.4629,-5.4799,-5.4881,-5.4945,-5.5027,-5.5062,-5.5057,-5.5068,-5.5135,-5.5141,-5.5148,-5.5177,-5.5187,-5.5066,-5.5065,-5.5065,0,-5.3712,-5.3852,-5.3935,-5.4029,-5.4097,-5.4165,-5.4253,-5.4327,-5.4474,-5.452,-5.452,-5.4738,-5.4822,-5.4962,-5.4982,-5.5032,-5.506,-5.504,-5.5134,-5.5141,-5.5148,-5.5177,-5.5188,-5.5064,-5.5064,-5.5064,-5.5064,0,-5.3827,-5.3924,-5.3979,-5.412,-5.4194,-5.4285,-5.4383,-5.4449,-5.4495,-5.4566,-5.469,-5.4793,-5.4916,-5.4954,-5.4999,-5.5102,-5.5099,-5.5115,-5.5113,-5.5153,-5.5182,-5.5194,-5.5062,-5.5062,-5.5063,-5.5063,0,0,-5.3833,-5.4021,-5.404,-5.4106,-5.4247,-5.4324,-5.442,-5.454,-5.4596,-5.4697,-5.478,-5.4925,-5.4943,-5.5015,-5.5072,-5.513,-5.519,-5.514,-5.5144,-5.5145,-5.5311,-5.5296,-5.5307,-5.5215,-5.5218,-5.522,-5.5301,0,-5.3896,-5.4068,-5.4147,-5.4284,-5.4376,-5.4445,-5.4529,-5.4625,-5.4695,-5.4785,-5.4863,-5.4964,-5.4979,-5.5024,-5.5085,-5.5169,-5.5224,-5.5165,-5.5294,-5.5298,-5.526,-5.5323,-5.5307,-5.5377,-5.5313,-5.5315,-5.5316,0,-5.399,-5.4092,-5.4238,-5.4371,-5.4413,-5.4487,-5.4605,-5.469,-5.4802,-5.4849,-5.4933,-5.4988,-5.5093,-5.5086,-5.5234,-5.5192,-5.5251,-5.5301,-5.5306,-5.5319,-5.5307,-5.5336,-5.5402,-5.5412,-5.5335,-5.5333,-5.5332,0,-5.3979,-5.4154,-5.4264,-5.4319,-5.4477,-5.4527,-5.4596,-5.4707,-5.4775,-5.488,-5.4925,-5.5041,-5.5103,-5.5193,-5.5279,-5.5265,-5.5419,-5.5418,-5.5462,-5.5459,-5.5488,-5.5484,-5.5562,-5.5529,-5.5528,-5.5528,-5.5528,0,-5.404,-5.4127,-5.4262,-5.4329,-5.443,-5.4522,-5.462,-5.4694,-5.4793,-5.4878,-5.4946,-5.5024,-5.5133,-5.5227,-5.5295,-5.5408,-5.5436,-5.5478,-5.5495,-5.5471,-5.5465,-5.5508,-5.5505,-5.5531,-5.5531,-5.553,-5.5529,0,-5.4043,-5.4137,-5.4262,-5.4403,-5.444,-5.4508,-5.4629,-5.4699,-5.4774,-5.4881,-5.4912,-5.503,-5.5143,-5.5239,-5.5388,-5.5435,-5.5552,-5.5572,-5.5513,-5.5521,-5.5559,-5.5553,-5.5665,-5.5685,-5.5639,-5.5639,-5.5639,0,-5.4074,-5.4143,-5.4292,-5.4353,-5.4421,-5.4519,-5.459,-5.4685,-5.4756,-5.4892,-5.4946,-5.5065,-5.5164,-5.5343,-5.5443,-5.5559,-5.5582,-5.5614,-5.56,-5.5574,-5.5582,-5.5576,-5.5584,-5.5613,-5.5613,-5.5613,-5.5613,0,-5.412,-5.4164,-5.4262,-5.4379,-5.4461,-5.4558,-5.4656,-5.4703,-5.4817,-5.4894,-5.5011,-5.5088,-5.5242,-5.536,-5.5487,-5.556,-5.5606,-5.5618,-5.5634,-5.5609,-5.5571,-5.5592,-5.5514,-5.5614,-5.5614,-5.5614,-5.5614,-5.5614,-5.4138,-5.4203,-5.4318,-5.4427,-5.4511,-5.4602,-5.4675,-5.4761,-5.486,-5.4991,-5.5043,-5.5163,-5.5279,-5.5454,-5.5528,-5.5624,-5.563,-5.5653,-5.5659,-5.5663,-5.5659,-5.5558,-5.5648,-5.5648,-5.5648,-5.5649,-5.5649,0,-5.4186,-5.4265,-5.4364,-5.45,-5.4586,-5.4624,-5.4736,-5.4805,-5.491,-5.5013,-5.5111,-5.5247,-5.5363,-5.5473,-5.5595,-5.5651,-5.5676,-5.568,-5.5676,-5.5692,-5.5647,-5.562,-5.5658,-5.5658,-5.5658,-5.5658,-5.5658,-5.5658,-5.4221,-5.4334,-5.4392,-5.4548,-5.4627,-5.4745,-5.4805,-5.4891,-5.4974,-5.5123,-5.5219,-5.5291,-5.5398,-5.5529,-5.5638,-5.5668,-5.5709,-5.5707,-5.5742,-5.5697,-5.5695,-5.5693,-5.5668,-5.5716,-5.5716,-5.578,-5.578,-5.5781]},{"header":{"parameterUnit":"m.s-1","parameterCategory":1,"la1":30.2991,"la2":30.254,"lo1":-89.0895,"lo2":-89.0444,"dx":0.0017,"dy":0.0017,"nx":28,"ny":28,"refTime":"2022-11-03T21:00:00:Z","depth":0,"parameterNumber":3,"parameterNumberName":"V-component_of_WINDS"},"data":[0,0,0,0,0,0,0,0,0,0,0,0,0,0,0,0,0,0,0,0,0,0,0,0,0,0,0,0,0,0,0,0,0,0,0,0,0,0,0,0,0,0,0,0,0,0,0,0,0,0,0,0,0,0,0,0,0,0,1.1975,1.1976,0,1.2078,1.2079,1.208,1.216,1.2161,1.2162,1.2162,1.227,1.2272,1.2274,0,0,0,0,0,0,0,0,0,0,0,0,0,1.1853,1.1855,1.1975,1.1977,1.1978,1.2078,1.2079,1.208,1.216,1.2161,1.2162,1.2163,1.2269,1.2272,1.2275,0,0,0,0,0,0,0,0,0,0,0,0,0,1.1926,1.1856,1.1975,1.2029,1.2035,1.2077,1.2079,1.2081,1.216,1.2161,1.2162,1.2163,1.2269,1.2272,1.2275,1.2272,0,0,1.2285,1.2286,0,0,0,0,0,0,0,0,1.1922,1.193,1.202,1.2026,1.2032,1.2107,1.2076,1.2145,1.2159,1.2113,1.2162,1.2164,1.2215,1.2223,1.224,1.2277,1.2282,1.2285,1.2287,1.2288,1.2289,0,0,0,0,0,0,0,1.1917,1.1927,1.2016,1.2021,1.2029,1.205,1.2062,1.2089,1.2156,1.2117,1.2123,1.2134,1.2219,1.2236,1.2243,1.2283,1.2285,1.2288,1.229,1.2291,1.2327,1.2327,0,0,0,0,0,0,1.1903,1.1922,1.2013,1.2019,1.1979,1.2052,1.2065,1.2082,1.2156,1.2169,1.2133,1.2137,1.223,1.2239,1.2247,1.2251,1.2288,1.2291,1.2293,1.2328,1.2327,1.2326,0,0,0,0,0,0,1.19,1.191,1.2009,1.1972,1.1986,1.2052,1.2072,1.2084,1.2101,1.2168,1.2181,1.2138,1.2232,1.2242,1.2266,1.2255,1.2293,1.2296,1.233,1.2328,1.2327,1.2256,0,0,0,0,0,0,1.1896,1.1908,1.1907,1.1971,1.1988,1.2024,1.2071,1.2085,1.2106,1.2113,1.2176,1.2188,1.2233,1.2261,1.2269,1.226,1.2298,1.2331,1.2329,1.2327,1.226,1.2252,1.2246,0,0,0,0,0,1.1891,1.1883,1.1906,1.1917,1.1987,1.2023,1.2033,1.2084,1.2105,1.2105,1.2148,1.2186,1.2255,1.2262,1.2272,1.2265,1.2332,1.2329,1.2327,1.2263,1.2254,1.2246,0,0,0,0,0,0,1.1815,1.1892,1.1919,1.193,1.197,1.2036,1.2037,1.2072,1.2107,1.2112,1.2175,1.2189,1.2206,1.2238,1.2245,1.2268,1.2299,1.2298,1.2246,1.2238,1.2231,1.2223,1.2301,0,0,0,0,0,1.1799,1.1821,1.1888,1.1892,1.191,1.197,1.1988,1.2024,1.2068,1.2085,1.213,1.2172,1.2203,1.2222,1.2255,1.2265,1.2281,1.2265,1.2258,1.2252,1.2251,1.2262,1.2256,1.2319,1.2319,1.2319,0,0,1.1767,1.1812,1.1822,1.1878,1.1912,1.1935,1.1983,1.2005,1.2023,1.2088,1.2113,1.2148,1.2199,1.2217,1.2227,1.2244,1.2238,1.225,1.2244,1.2247,1.2259,1.2253,1.2248,1.2317,1.2318,1.2318,0,0,1.1721,1.1756,1.1765,1.1799,1.1851,1.1891,1.1893,1.1955,1.1981,1.2007,1.2057,1.2081,1.2133,1.2168,1.2193,1.2163,1.22,1.2172,1.2137,1.2146,1.2141,1.2137,1.2128,1.2124,1.2171,1.2171,1.2171,0,1.1675,1.171,1.1765,1.1784,1.1808,1.1868,1.1879,1.1909,1.1969,1.1985,1.2004,1.2072,1.2111,1.2138,1.2131,1.2149,1.2155,1.2165,1.2137,1.2134,1.2131,1.2123,1.2119,1.2167,1.2168,1.2168,1.2168,0,1.1652,1.1676,1.1677,1.1733,1.1757,1.1772,1.183,1.1849,1.1884,1.1923,1.1951,1.2,1.2044,1.2054,1.2088,1.2087,1.2096,1.2125,1.2157,1.212,1.2114,1.2111,1.2162,1.2163,1.2164,1.2165,0,0,1.1559,1.1647,1.1646,1.1674,1.1736,1.1757,1.1776,1.1819,1.1834,1.1874,1.1893,1.1937,1.1965,1.1993,1.2032,1.204,1.2016,1.2069,1.2071,1.2058,1.2021,1.1999,1.1995,1.2042,1.2041,1.2041,1.2017,0,1.1523,1.1558,1.1609,1.1628,1.1652,1.1712,1.1728,1.177,1.1808,1.1835,1.1878,1.1909,1.1943,1.196,1.1971,1.2017,1.201,1.2019,1.2061,1.2062,1.2046,1.1991,1.1968,1.1942,1.2015,1.2015,1.2014,0,1.1485,1.1522,1.1543,1.1607,1.1619,1.1633,1.1678,1.1703,1.1753,1.178,1.1812,1.1855,1.1881,1.191,1.1947,1.1952,1.1973,1.1998,1.1999,1.2005,1.2036,1.1996,1.1936,1.1932,1.2011,1.2011,1.2011,0,1.1416,1.1472,1.1492,1.1514,1.1588,1.1597,1.1628,1.1679,1.1703,1.1743,1.1759,1.1802,1.1826,1.1859,1.1913,1.1929,1.1945,1.1978,1.197,1.1969,1.1971,1.197,1.1913,1.1983,1.1983,1.1983,1.1983,0,1.1371,1.1382,1.1463,1.1475,1.149,1.155,1.1564,1.1602,1.1647,1.1669,1.1724,1.1744,1.1814,1.1844,1.1887,1.1912,1.1922,1.1947,1.1958,1.1942,1.1939,1.1956,1.196,1.1982,1.1982,1.1982,1.1983,0,1.1297,1.135,1.1377,1.1446,1.1463,1.1472,1.1532,1.1547,1.1589,1.1617,1.1628,1.1694,1.1732,1.179,1.1845,1.1874,1.1893,1.1911,1.1875,1.1882,1.1871,1.1872,1.1824,1.1821,1.1891,1.1891,1.189,0,1.1264,1.1274,1.1344,1.1363,1.1392,1.1422,1.1446,1.1507,1.1531,1.159,1.1599,1.1641,1.1678,1.1736,1.179,1.1833,1.1854,1.1834,1.186,1.1845,1.1855,1.1854,1.1856,1.1827,1.1826,1.1825,1.1825,0,1.1202,1.1229,1.1261,1.1304,1.1332,1.1369,1.1408,1.1421,1.1491,1.1515,1.1554,1.1583,1.164,1.1681,1.1733,1.1768,1.1809,1.1816,1.1817,1.1801,1.178,1.1792,1.1859,1.1817,1.1818,1.1818,1.1819,1.1819,1.1148,1.1161,1.1212,1.1248,1.1284,1.1321,1.1339,1.1384,1.1417,1.1468,1.1502,1.154,1.1593,1.1666,1.1699,1.1731,1.1748,1.1748,1.1749,1.1748,1.1743,1.1775,1.174,1.174,1.1741,1.1741,1.1741,0,1.109,1.1126,1.1158,1.1212,1.1241,1.1276,1.1323,1.1345,1.1377,1.1422,1.1457,1.1504,1.1545,1.1604,1.165,1.1665,1.1685,1.1675,1.1675,1.1683,1.1724,1.1719,1.1658,1.1658,1.1658,1.1658,1.1658,1.1658,1.1062,1.1086,1.1119,1.1163,1.12,1.1236,1.126,1.1295,1.1332,1.1381,1.1415,1.1453,1.1504,1.1556,1.1596,1.1613,1.1628,1.1612,1.1634,1.1672,1.1679,1.1687,1.1682,1.1615,1.1615,1.1591,1.159,1.159]}]]